TimeEDT,TemperatureF,Dew PointF,Humidity,Sea Level PressureIn,VisibilityMPH,Wind Direction,Wind SpeedMPH,Gust SpeedMPH,PrecipitationIn,Events,Conditions,WindDirDegrees,DateUTC
12:51 AM,51.1,42.1,71,30.26,10.0,SSE,8.1,-,N/A,,Clear,160,2013-09-18 04:51:00
1:51 AM,51.1,39.9,66,30.26,10.0,South,10.4,-,N/A,,Clear,170,2013-09-18 05:51:00
2:51 AM,52.0,37.9,59,30.24,10.0,SSE,12.7,-,N/A,,Clear,160,2013-09-18 06:51:00
3:51 AM,51.1,37.9,61,30.24,10.0,SSE,9.2,-,N/A,,Clear,160,2013-09-18 07:51:00
4:51 AM,50.0,37.9,63,30.23,10.0,SSE,9.2,-,N/A,,Clear,160,2013-09-18 08:51:00
5:51 AM,48.9,37.9,66,30.23,10.0,South,9.2,-,N/A,,Clear,170,2013-09-18 09:51:00
6:51 AM,48.0,37.9,68,30.24,10.0,SSE,11.5,-,N/A,,Clear,160,2013-09-18 10:51:00
7:51 AM,48.9,37.9,66,30.24,10.0,SSE,12.7,-,N/A,,Clear,160,2013-09-18 11:51:00
8:51 AM,54.0,39.9,59,30.24,10.0,South,11.5,-,N/A,,Clear,170,2013-09-18 12:51:00
9:51 AM,59.0,43.0,55,30.24,10.0,South,12.7,-,N/A,,Clear,170,2013-09-18 13:51:00
10:51 AM,64.0,48.0,56,30.23,10.0,South,8.1,-,N/A,,Clear,190,2013-09-18 14:51:00
11:51 AM,68.0,48.9,50,30.22,10.0,Variable,4.6,-,N/A,,Clear,0,2013-09-18 15:51:00
12:51 PM,69.1,48.9,49,30.20,10.0,NNW,5.8,-,N/A,,Clear,330,2013-09-18 16:51:00
1:51 PM,69.1,48.9,49,30.18,10.0,North,6.9,-,N/A,,Clear,350,2013-09-18 17:51:00
2:51 PM,72.0,51.1,48,30.15,10.0,North,3.5,-,N/A,,Clear,10,2013-09-18 18:51:00
3:51 PM,72.0,52.0,49,30.12,10.0,North,6.9,-,N/A,,Clear,10,2013-09-18 19:51:00
4:51 PM,70.0,52.0,53,30.12,10.0,NNE,5.8,-,N/A,,Clear,20,2013-09-18 20:51:00
5:51 PM,69.1,52.0,54,30.12,10.0,NE,5.8,-,N/A,,Clear,50,2013-09-18 21:51:00
6:51 PM,66.0,53.1,63,30.11,10.0,ENE,5.8,-,N/A,,Clear,70,2013-09-18 22:51:00
7:51 PM,63.0,53.1,70,30.11,10.0,ESE,5.8,-,N/A,,Clear,110,2013-09-18 23:51:00
8:51 PM,62.1,53.1,72,30.12,10.0,SSE,8.1,-,N/A,,Clear,160,2013-09-19 00:51:00
9:51 PM,63.0,52.0,67,30.13,10.0,SSE,8.1,-,N/A,,Mostly Cloudy,160,2013-09-19 01:51:00
10:51 PM,61.0,50.0,67,30.11,10.0,South,6.9,-,N/A,,Clear,170,2013-09-19 02:51:00
11:51 PM,60.1,50.0,69,30.11,10.0,South,9.2,-,N/A,,Clear,170,2013-09-19 03:51:00